Temp
17 17 17 18 18 18 19 19 20 20 21 21 22 23 23 24 24 25 26 28 28 28 28 28 29 29 30 29 28 28 25 23 26 26 27 29 28 26 26 26 26 25 23 22 21
17 17 18 18 18 18 19 19 20 20 21 21 22 23 23 23 24 26 28 27 28 28 28 28 29 29 29 31 31 27 23 26 29 27 27 29 29 27 26 26 24 24 23 21 21
17 17 18 18 18 18 19 19 20 20 21 21 22 22 23 23 24 28 28 28 29 28 28 28 29 28 28 30 31 30 26 30 29 29 31 28 27 28 25 25 25 23 22 21 22
17 17 18 18 19 19 19 19 20 20 20 21 22 22 23 23 23 28 29 29 29 28 28 29 29 28 28 29 33 30 31 32 29 29 29 28 28 26 27 26 25 24 24 22 21
17 17 18 18 19 19 19 19 20 20 20 21 21 22 22 23 26 28 29 29 29 29 29 29 29 28 29 31 32 30 31 33 33 31 29 28 27 27 27 26 26 25 23 23 23
17 17 18 18 19 19 19 19 20 20 20 21 21 22 22 21 28 28 28 28 29 29 29 29 30 30 30 31 30 33 32 32 33 32 29 27 27 29 27 26 25 25 25 24 24
17 17 18 18 19 19 19 19 20 20 20 21 21 22 22 26 28 28 28 28 29 29 29 30 30 30 31 28 32 34 31 31 31 32 30 29 26 27 27 26 25 25 25 25 25
17 17 18 18 19 19 19 19 20 20 20 21 21 22 23 28 27 28 28 28 29 29 30 30 31 31 32 31 31 32 31 28 30 31 31 30 26 27 26 26 25 25 25 25 26
17 17 18 18 19 19 20 20 20 20 20 21 21 21 24 27 28 29 29 29 29 30 31 31 31 31 31 26 24 28 28 29 31 31 31 30 27 28 27 26 26 26 25 26 26
17 18 18 18 19 19 19 20 20 20 20 20 20 20 25 28 29 29 29 29 29 30 30 30 30 25 24 23 24 28 28 29 28 31 31 29 28 28 27 27 26 26 26 26 26
17 18 18 19 19 19 19 19 20 20 20 23 24 24 26 27 27 28 29 29 29 29 26 29 26 24 26 25 27 27 29 30 29 31 31 29 31 30 29 28 27 26 26 27 27
17 18 18 19 19 19 19 20 21 21 20 25 24 24 27 26 25 29 29 29 28 26 27 25 24 27 27 28 32 29 29 29 30 32 30 30 30 29 26 28 28 27 26 27 27
17 18 18 19 19 19 20 23 23 22 20 25 27 26 27 27 28 29 29 29 28 26 26 24 26 29 29 31 31 28 30 31 31 30 30 27 27 25 26 27 29 28 27 27 26
17 18 18 19 19 20 23 24 22 21 17 22 25 27 27 28 28 30 30 30 28 27 26 25 29 29 29 32 29 29 31 32 32 27 26 28 24 25 23 23 25 27 28 27 27
17 18 19 19 20 21 23 22 21 21 20 25 25 28 28 28 29 29 30 30 27 27 27 27 30 29 31 31 31 29 31 32 31 29 26 27 23 24 22 26 25 23 23 26 27
18 19 19 20 20 22 22 22 22 18 20 26 27 26 26 27 28 30 30 30 30 28 27 26 31 31 29 32 32 31 31 25 23 22 23 26 25 25 23 24 23 24 22 26 27
18 19 20 21 22 21 22 23 18 18 25 26 25 26 25 25 27 27 27 26 25 26 24 26 28 30 33 31 28 26 23 22 24 22 23 22 24 24 23 23 22 22 23 23 25
19 20 21 22 22 21 23 19 20 23 24 27 26 25 25 25 26 26 26 25 25 26 23 26 26 29 31 29 28 28 24 22 26 24 24 22 24 25 24 22 23 24 24 22 21
20 20 22 23 22 21 21 17 19 22 26 27 26 25 25 27 27 27 25 24 25 24 25 25 26 28 30 30 28 29 27 24 25 24 21 20 23 24 23 19 23 23 23 22 21
19 20 22 23 22 21 17 16 20 25 26 26 25 25 24 26 27 25 24 26 28 27 26 27 27 30 31 32 30 29 27 26 21 25 22 21 22 23 23 20 21 20 21 21 20
20 19 23 23 22 21 16 16 22 26 27 24 26 25 25 26 25 24 25 28 29 29 25 26 25 27 30 28 28 26 25 24 23 21 19 20 19 19 22 20 19 20 21 22 21
19 16 23 23 20 17 16 19 25 26 27 25 29 26 26 27 26 26 26 27 31 30 28 28 21 25 29 29 28 27 26 21 21 23 19 19 21 24 22 23 23 19 23 21 23
18 19 22 23 17 16 19 22 25 25 26 27 30 30 29 26 27 28 29 30 31 28 28 28 22 22 23 24 26 25 25 23 20 19 22 21 22 23 23 22 24 23 23 22 23
17 16 23 22 23 20 21 23 24 27 27 29 28 29 27 28 27 28 29 29 30 29 29 28 21 22 22 24 24 26 26 23 21 20 20 22 21 20 21 21 22 23 22 23 23
17 17 20 18 19 19 21 22 23 24 28 30 28 28 28 27 25 27 27 27 28 30 29 24 24 26 25 25 24 25 26 24 22 22 21 22 21 22 21 20 22 23 22 22 22
17 17 19 18 20 19 18 21 24 25 27 28 29 27 26 28 26 26 25 25 28 29 27 21 24 25 23 26 26 26 24 25 24 23 24 22 22 21 22 24 24 24 23 22 21
16 16 17 18 18 19 20 22 25 26 29 29 29 26 26 27 27 29 30 28 27 27 24 22 21 20 24 23 24 22 22 22 22 22 23 21 21 22 20 20 20 21 22 22 22
Height
1514 1513 1512 1512 1512 1511 1511 1511 1511 1511 1510 1510 1510 1510 1509 1508 1507 1506 1502 1501 1497 1501 1499 1499 1500 1500 1498 1497 1502 1505 1516 1523 1515 1510 1505 1498 1499 1506 1506 1508 1508 1509 1510 1516 1523
1512 1511 1510 1509 1509 1509 1509 1509 1509 1509 1509 1508 1508 1509 1509 1507 1505 1502 1501 1500 1498 1499 1499 1498 1495 1496 1494 1489 1493 1497 1513 1506 1496 1501 1499 1500 1498 1504 1508 1508 1512 1510 1515 1521 1524
1510 1508 1507 1507 1507 1507 1507 1507 1507 1507 1507 1507 1507 1508 1508 1507 1505 1498 1499 1499 1498 1499 1498 1498 1496 1497 1492 1490 1486 1490 1501 1491 1495 1494 1493 1498 1499 1501 1506 1512 1509 1511 1516 1521 1524
1508 1506 1505 1504 1504 1505 1505 1505 1506 1506 1506 1506 1506 1507 1506 1506 1507 1496 1498 1497 1498 1498 1498 1497 1496 1497 1493 1488 1484 1490 1486 1487 1492 1493 1496 1494 1497 1502 1504 1507 1509 1511 1515 1521 1525
1507 1504 1503 1502 1502 1502 1503 1503 1504 1505 1505 1504 1505 1505 1505 1505 1497 1496 1497 1496 1496 1497 1498 1497 1495 1495 1493 1487 1484 1486 1485 1485 1487 1488 1493 1494 1498 1498 1501 1506 1509 1512 1515 1520 1523
1505 1503 1501 1500 1500 1500 1501 1502 1502 1503 1503 1503 1503 1503 1504 1503 1494 1495 1494 1493 1495 1496 1497 1495 1494 1493 1490 1487 1487 1482 1484 1485 1486 1487 1495 1495 1500 1497 1502 1505 1508 1509 1514 1516 1520
1503 1501 1499 1498 1498 1499 1499 1500 1501 1501 1502 1502 1502 1502 1501 1492 1493 1494 1493 1491 1493 1496 1495 1492 1493 1493 1487 1487 1485 1479 1488 1487 1486 1486 1490 1496 1506 1500 1498 1504 1506 1508 1511 1515 1518
1501 1499 1497 1496 1496 1497 1498 1499 1499 1500 1500 1500 1501 1501 1495 1491 1493 1491 1492 1491 1492 1494 1493 1490 1490 1489 1487 1488 1485 1483 1486 1503 1486 1485 1488 1488 1509 1494 1497 1501 1504 1507 1508 1511 1514
1500 1497 1495 1494 1495 1496 1496 1497 1498 1499 1499 1500 1501 1500 1493 1488 1489 1490 1491 1491 1490 1490 1490 1489 1489 1487 1486 1494 1504 1493 1506 1500 1491 1482 1483 1488 1500 1491 1496 1498 1501 1503 1506 1508 1511
1498 1496 1494 1493 1493 1495 1495 1496 1497 1498 1498 1499 1500 1502 1489 1486 1488 1489 1490 1490 1491 1490 1490 1488 1489 1490 1490 1503 1527 1508 1501 1493 1496 1484 1485 1489 1491 1486 1491 1494 1496 1500 1503 1505 1508
1496 1494 1492 1491 1492 1494 1495 1497 1500 1500 1497 1490 1489 1485 1483 1487 1488 1487 1488 1490 1490 1492 1495 1489 1498 1506 1492 1493 1491 1492 1492 1492 1484 1479 1484 1487 1484 1481 1487 1492 1495 1498 1501 1502 1503
1495 1492 1491 1490 1491 1493 1494 1494 1496 1497 1492 1486 1486 1486 1483 1487 1488 1483 1487 1491 1490 1495 1493 1498 1505 1485 1485 1484 1478 1484 1491 1493 1484 1478 1483 1484 1488 1485 1482 1488 1488 1493 1497 1498 1500
1493 1491 1489 1489 1490 1492 1492 1492 1494 1495 1492 1482 1481 1482 1482 1485 1483 1482 1486 1486 1488 1493 1494 1506 1489 1482 1486 1479 1484 1491 1492 1491 1492 1483 1480 1489 1500 1496 1489 1489 1486 1494 1494 1498 1505
1491 1489 1488 1488 1492 1490 1490 1493 1495 1496 1503 1485 1479 1478 1481 1482 1481 1480 1483 1486 1487 1492 1492 1496 1479 1481 1482 1480 1484 1499 1481 1480 1484 1498 1516 1490 1534 1502 1497 1491 1494 1489 1495 1498 1500
1488 1487 1486 1487 1487 1488 1490 1490 1492 1495 1519 1472 1473 1475 1475 1479 1478 1479 1481 1484 1487 1486 1491 1490 1479 1480 1483 1480 1476 1490 1478 1479 1482 1493 1502 1503 1522 1508 1498 1497 1501 1499 1493 1494 1494
1486 1484 1484 1485 1485 1488 1487 1488 1492 1507 1514 1472 1467 1471 1475 1475 1476 1477 1479 1481 1482 1487 1487 1485 1476 1475 1474 1470 1471 1474 1479 1489 1495 1507 1531 1504 1513 1512 1513 1506 1505 1509 1506 1499 1495
1482 1481 1481 1482 1485 1486 1487 1488 1507 1517 1469 1472 1472 1469 1474 1478 1477 1477 1480 1486 1497 1504 1505 1486 1479 1471 1468 1476 1474 1481 1505 1539 1536 1540 1540 1510 1513 1513 1506 1501 1501 1499 1502 1503 1500
1478 1478 1479 1481 1483 1485 1485 1490 1510 1481 1472 1460 1464 1470 1479 1475 1477 1476 1483 1492 1484 1489 1506 1506 1510 1473 1467 1473 1485 1486 1500 1536 1539 1543 1534 1518 1528 1508 1502 1493 1499 1503 1507 1511 1512
1476 1476 1477 1481 1483 1485 1487 1504 1496 1478 1463 1464 1466 1478 1480 1471 1473 1476 1482 1488 1481 1482 1502 1506 1500 1464 1463 1463 1472 1484 1500 1492 1512 1516 1538 1538 1519 1501 1495 1502 1498 1502 1507 1512 1516
1476 1475 1476 1480 1483 1485 1490 1498 1481 1465 1464 1463 1475 1469 1482 1475 1477 1480 1487 1471 1473 1469 1471 1482 1499 1469 1463 1463 1468 1474 1476 1504 1516 1532 1551 1539 1529 1517 1502 1505 1496 1498 1507 1518 1522
1475 1475 1475 1479 1484 1486 1496 1490 1470 1460 1462 1465 1463 1468 1467 1471 1471 1479 1476 1463 1460 1461 1466 1476 1488 1486 1470 1480 1483 1483 1493 1496 1504 1520 1548 1551 1536 1496 1497 1499 1497 1496 1501 1512 1517
1475 1475 1473 1477 1484 1484 1489 1477 1465 1457 1454 1455 1445 1453 1461 1457 1466 1470 1470 1462 1451 1457 1471 1469 1492 1501 1487 1474 1468 1477 1489 1502 1528 1524 1530 1533 1524 1484 1485 1493 1492 1494 1494 1503 1505
1476 1475 1476 1476 1488 1486 1476 1469 1468 1457 1450 1448 1442 1440 1441 1450 1464 1460 1455 1453 1447 1454 1463 1464 1496 1519 1510 1490 1478 1487 1490 1494 1501 1515 1521 1531 1521 1484 1495 1493 1493 1497 1501 1506 1503
1478 1478 1476 1477 1474 1475 1475 1463 1461 1450 1447 1443 1438 1437 1442 1445 1445 1457 1455 1454 1452 1454 1459 1461 1492 1503 1525 1505 1495 1491 1488 1493 1500 1524 1526 1514 1512 1503 1500 1502 1503 1505 1505 1505 1505
1478 1476 1477 1480 1476 1470 1475 1469 1464 1465 1447 1440 1443 1446 1448 1456 1457 1459 1454 1457 1456 1457 1461 1469 1494 1488 1490 1489 1490 1492 1489 1492 1503 1509 1518 1512 1512 1510 1506 1506 1507 1507 1506 1507 1506
1479 1479 1477 1476 1474 1472 1471 1468 1464 1454 1452 1447 1444 1450 1448 1450 1455 1465 1460 1464 1466 1463 1466 1473 1494 1489 1502 1489 1488 1493 1492 1491 1495 1501 1501 1503 1510 1508 1506 1504 1502 1504 1507 1509 1508
1481 1479 1479 1474 1472 1470 1472 1466 1455 1451 1442 1440 1442 1449 1452 1452 1449 1451 1454 1457 1460 1467 1473 1480 1491 1504 1509 1499 1495 1514 1506 1500 1501 1495 1496 1515 1513 1509 1511 1509 1511 1511 1511 1512 1512
Wind_Speed
11 11 11 10 10 9 8 9 9 8 8 9 9 9 11 14 13 15 19 12 16 11 17 23 22 22 26 8 23 21 3 3 4 7 4 3 5 5 8 19 10 11 24 35 38
11 11 11 11 10 9 9 8 8 8 8 8 9 8 10 13 15 18 11 13 13 12 18 22 25 27 18 13 12 9 5 8 6 5 5 5 11 7 4 14 11 20 26 38 37
13 12 11 11 10 9 9 8 8 8 8 8 9 7 9 12 14 13 12 9 11 11 17 20 23 23 11 9 6 7 6 5 14 19 14 12 8 9 8 1 24 29 38 39 37
13 12 11 10 9 9 9 8 8 8 8 8 8 7 8 9 3 1 10 9 11 13 17 19 17 19 7 5 10 7 13 9 17 19 12 8 15 7 10 7 24 35 36 38 36
14 13 11 9 9 9 9 8 8 7 7 8 7 7 7 7 11 6 1 7 12 14 17 20 25 20 5 3 5 6 6 15 13 26 21 21 13 8 14 22 28 35 31 35 36
14 13 10 8 8 8 8 8 8 7 7 7 7 7 6 7 6 6 8 8 12 12 15 18 23 30 17 6 4 8 12 14 12 12 23 15 7 10 16 32 35 35 32 31 32
14 12 10 7 7 8 8 7 7 7 7 6 6 7 11 19 7 7 9 10 8 10 18 19 26 24 12 8 24 2 6 5 7 7 8 23 2 7 31 35 34 34 34 29 29
13 12 10 7 7 7 7 7 7 6 6 6 6 8 11 11 14 12 4 13 10 10 17 21 20 22 4 12 13 2 3 4 4 8 15 8 7 8 35 34 31 32 35 32 28
14 12 9 6 6 7 6 6 6 6 6 6 5 5 11 8 12 8 6 8 8 8 11 16 20 11 7 4 5 3 3 5 3 10 6 3 5 10 34 32 30 31 32 34 30
14 12 9 6 6 6 7 6 6 6 7 6 6 5 14 12 17 15 14 11 11 13 19 20 8 4 5 5 4 4 4 4 7 6 5 6 7 7 32 31 31 31 32 34 33
14 12 9 5 6 7 8 5 3 3 11 12 7 7 1 6 9 15 15 13 12 13 5 19 2 8 12 6 12 9 2 4 6 7 4 7 3 2 23 25 26 28 31 35 35
14 12 8 5 6 9 10 8 5 3 8 19 24 18 23 17 10 17 16 10 5 5 4 5 7 13 7 14 1 7 5 5 4 5 4 3 5 4 7 4 27 31 32 36 34
14 11 7 5 7 9 12 13 5 12 3 6 21 30 20 7 10 14 14 11 4 4 5 5 13 8 9 2 3 5 2 1 1 4 3 6 5 5 2 5 13 24 33 28 15
14 10 5 5 5 9 12 2 9 9 4 6 7 10 16 10 5 13 12 12 1 8 5 7 17 11 10 3 5 2 3 2 1 4 3 3 4 4 5 7 11 14 26 21 21
15 9 6 10 5 11 6 5 13 1 1 4 8 4 16 11 3 13 17 19 9 11 6 9 3 6 4 6 5 7 4 0 1 1 3 4 5 7 3 4 9 13 28 32 33
15 9 7 12 12 4 3 5 1 5 5 4 10 6 6 8 8 2 22 25 4 3 7 11 19 3 8 3 3 2 3 8 5 4 3 4 5 5 5 6 10 11 18 30 34
15 8 11 15 7 1 6 2 4 3 5 5 7 4 6 6 4 8 6 5 6 1 5 6 6 4 3 3 7 9 7 4 5 5 4 6 5 6 8 7 5 13 19 22 26
12 6 12 16 7 5 5 4 3 5 6 3 6 7 7 5 6 8 7 6 6 4 3 2 8 6 3 7 8 4 8 5 3 2 3 7 6 6 3 19 17 13 10 2 14
6 5 12 18 9 1 3 2 6 6 4 3 5 5 4 5 6 3 9 8 8 10 8 3 6 6 7 5 10 4 2 8 4 2 5 3 5 6 8 11 18 13 11 6 18
3 4 12 19 11 5 4 5 5 5 3 3 8 7 8 6 5 7 8 9 9 11 7 4 2 3 5 5 2 6 4 2 3 3 2 4 4 5 3 5 9 17 15 10 16
2 4 14 22 13 3 3 7 7 16 8 7 5 6 9 7 11 9 12 7 17 8 12 5 3 7 4 4 3 5 4 5 4 4 5 4 6 7 10 10 11 17 32 33 20
2 2 22 27 5 3 3 6 5 16 31 8 8 8 8 8 7 7 9 9 12 9 7 5 5 1 2 3 6 5 5 6 5 6 1 3 4 5 10 13 16 29 25 22 16
9 4 24 27 3 3 7 10 12 14 10 7 3 3 4 9 6 3 4 6 17 5 6 3 2 3 9 8 4 8 4 4 5 3 0 4 5 1 10 10 10 10 14 13 12
3 2 9 24 8 5 4 10 5 17 9 1 3 5 8 5 1 6 4 4 10 9 8 7 4 7 6 7 3 4 4 5 6 4 4 1 3 8 8 9 12 13 21 16 17
2 3 3 2 6 8 3 7 13 8 6 3 5 5 3 4 7 4 4 6 9 7 6 5 4 3 1 4 4 2 2 7 5 3 4 4 9 2 5 8 16 22 19 19 14
3 4 6 5 9 6 6 6 7 12 3 6 2 7 5 2 8 6 10 5 1 3 4 4 1 3 5 3 3 3 7 3 4 4 5 8 6 2 7 15 17 13 15 11 10
4 3 3 5 7 3 3 7 12 5 10 7 5 7 12 6 13 18 13 9 4 4 3 4 4 3 2 2 5 6 9 13 9 9 7 7 2 2 10 18 23 24 21 17 16
Wind_Direction
312 299 290 281 275 273 270 269 267 266 266 266 266 269 280 285 283 277 258 226 255 307 316 311 310 317 324 206 211 204 184 226 224 153 219 177 123 112 131 141 161 205 162 159 162
320 304 289 281 274 271 270 270 269 267 264 263 265 268 281 293 297 263 205 230 264 307 308 311 311 324 325 300 161 149 149 213 165 151 190 104 87 92 66 147 106 114 149 153 164
325 312 293 277 270 266 265 266 267 266 263 260 262 266 278 299 310 259 207 237 281 302 301 301 302 317 291 238 249 162 160 191 152 180 150 112 114 135 106 110 144 139 152 162 171
329 320 302 279 265 260 258 259 259 260 258 257 258 259 273 296 263 6 194 259 275 289 288 291 304 319 316 342 165 100 157 138 151 167 147 155 153 141 173 200 159 154 165 169 170
333 324 311 283 260 253 251 253 254 255 254 253 255 257 273 268 250 137 29 279 276 281 277 294 302 307 265 261 121 126 176 156 176 172 157 151 167 152 129 161 157 156 164 176 182
335 329 316 288 258 246 245 246 249 249 249 249 249 259 264 265 207 218 254 273 267 272 278 288 296 309 263 346 288 180 171 173 202 196 158 153 185 150 153 160 159 164 169 176 189
338 331 319 291 257 240 237 239 243 242 242 243 244 257 257 234 182 213 250 270 270 269 283 303 300 311 338 337 339 235 128 215 227 205 134 137 189 187 160 164 165 172 175 177 192
338 332 320 289 254 238 230 233 236 235 234 233 236 264 259 235 252 258 221 262 264 269 278 289 300 309 346 318 343 166 62 131 249 178 163 144 232 176 166 166 175 177 181 185 193
337 331 319 287 248 232 223 224 227 221 220 218 237 248 263 220 226 190 245 269 273 251 269 291 303 297 327 70 355 344 230 185 205 196 167 122 227 166 174 175 176 180 186 192 192
336 330 319 280 238 221 214 211 218 209 209 208 220 278 245 221 205 232 218 228 269 274 302 299 304 13 341 78 244 259 229 241 172 227 176 188 219 165 180 183 179 183 189 195 198
335 329 318 270 225 209 205 190 203 225 224 209 215 214 293 219 278 232 208 219 241 279 277 299 35 253 254 215 246 221 205 294 194 213 126 222 271 342 186 192 178 186 190 197 199
333 328 313 253 212 210 206 204 152 36 284 240 241 259 261 272 302 233 204 216 221 243 355 355 271 256 256 273 275 21 18 8 23 165 151 192 281 352 32 118 185 183 189 199 199
332 324 305 235 208 217 224 195 162 330 259 280 229 238 254 315 229 217 196 217 217 256 270 177 259 290 256 324 17 356 122 0 213 353 10 96 350 355 355 73 110 188 192 198 191
330 319 290 210 205 211 194 128 275 304 49 268 190 250 239 247 275 213 218 214 265 226 245 240 260 239 259 189 111 24 279 132 86 66 228 65 258 319 311 342 83 139 176 159 158
327 310 262 199 194 190 142 35 341 268 33 191 189 215 211 192 162 208 218 210 226 235 109 246 296 309 236 205 146 218 238 137 277 359 35 341 81 265 69 14 89 100 138 159 166
324 300 241 216 223 160 282 307 117 51 256 186 151 199 166 207 235 271 200 213 269 275 274 265 276 254 209 193 174 345 10 24 42 94 40 234 118 285 26 319 61 85 136 168 186
320 282 222 206 181 176 313 317 53 155 295 169 169 155 175 206 217 176 175 186 197 156 285 307 289 276 217 45 355 68 56 352 347 10 230 299 76 224 35 70 70 39 8 183 199
314 252 212 191 180 358 16 68 200 244 241 222 141 160 184 151 243 186 134 201 254 122 51 216 315 191 205 169 190 200 148 149 253 217 226 11 346 301 100 64 54 54 10 189 224
308 239 209 172 190 349 11 108 215 219 279 123 84 136 245 212 158 139 174 206 224 172 175 164 274 301 166 169 132 271 207 188 148 72 86 270 278 310 19 38 29 71 82 203 210
327 279 203 179 184 193 76 224 242 224 336 190 185 167 205 196 156 154 182 220 235 203 154 236 315 310 282 118 185 159 186 29 18 179 100 280 285 231 112 133 61 8 18 288 224
356 291 161 176 172 167 189 238 271 271 280 188 243 166 209 179 177 191 197 258 210 235 158 154 119 298 21 18 226 349 20 24 108 109 154 179 254 214 186 166 133 140 209 234 210
347 7 166 176 122 187 189 228 297 295 308 270 188 189 169 204 175 175 207 224 215 154 139 193 134 127 218 267 127 145 108 112 107 301 177 161 279 254 213 176 182 198 211 218 158
341 301 172 175 153 251 272 266 275 285 287 283 256 136 195 186 156 166 131 352 123 101 146 175 23 40 351 350 13 75 65 143 126 90 111 131 265 29 45 31 125 134 171 162 144
329 15 163 205 231 163 291 289 292 315 290 268 327 56 7 52 21 164 126 66 74 91 94 87 86 140 172 217 216 2 61 66 97 75 289 298 52 26 88 71 81 137 150 142 142
252 267 26 251 271 257 144 302 305 306 301 19 20 22 41 39 47 39 56 58 31 63 59 95 96 87 233 83 84 222 353 61 86 190 113 302 102 116 133 131 107 110 129 133 135
357 8 338 289 269 237 188 248 246 285 254 299 120 12 60 134 145 106 99 83 94 18 71 3 135 112 53 77 144 35 345 13 66 149 81 114 74 295 110 83 59 52 83 135 169
349 289 314 304 323 58 222 274 283 334 315 330 121 93 60 352 135 118 117 139 149 150 101 78 104 68 337 335 67 28 343 78 63 34 118 101 129 65 63 69 62 66 50 41 36